Regional Weather Roundup
Issued by NWS

Home | Current Version | Previous Version | Text Only | Print | Product List | Glossary Off
Versions: 1 2 3 4 5 6 7 8 9 10 11 12 13 14 15 16 17 18 19 20 21 22 23 24 25 26 27 28 29 30 31 32 33 34 35 36 37 38 39 40 41 42 43 44 45 46 47 48 49 50

000
ASUS45 KCYS 250810
RWRWY

WYOMING REGIONAL WEATHER ROUNDUP
NATIONAL WEATHER SERVICE CHEYENNE WY
200 AM MDT THU AUG 25 2016

NOTE:  "FAIR" INDICATES FEW OR NO CLOUDS BELOW 12,000 FEET
WITH NO SIGNIFICANT WEATHER AND/OR OBSTRUCTIONS TO VISIBILITY.

WYZ001-250900-
YELLOWSTONE NATIONAL PARK

CITY           SKY/WX    TMP DP  RH WIND       PRES   REMARKS
LK YELLOWSTONE   N/A     31  31 100 NW3       30.40S
W YELLOWSTONE  NOT AVBL

$$
WYZ002>013-054>058-071-098>099-250900-
NORTHERN WYOMING

CITY           SKY/WX    TMP DP  RH WIND       PRES   REMARKS
JACKSON        FAIR      46  36  66 N12       30.29R
CODY           CLOUDY    50  39  66 NW6       30.35S
GREYBULL       CLOUDY    56  37  49 NW17      30.27S
WORLAND        CLOUDY    53  50  89 SW9       30.31S
SHERIDAN       CLOUDY    53  42  66 W6        30.31F
BUFFALO        MOCLDY    51  39  63 N8        30.34S
GILLETTE       CLOUDY    49  41  74 CALM      30.32R
HULETT         FAIR      46  39  76 SW6       30.31R
NEWCASTLE      LGT RAIN  55  41  58 NW10      30.28R

$$
WYZ014>020-022>026-101>103-250900-
CENTRAL WYOMING

CITY           SKY/WX    TMP DP  RH WIND       PRES   REMARKS
BIG PINEY      FAIR      47  25  42 W3        30.31S
PINEDALE       FAIR      41  32  70 NW5       30.31S
DUBOIS         CLOUDY    45  37  76 SE16G24   30.35S
LANDER         CLOUDY    50  45  83 SE3       30.34S
RIVERTON       LGT RAIN  47  46  97 N8        30.36S
CASPER         CLOUDY    49  47  93 N14       30.33S
DOUGLAS        CLOUDY    55  40  56 N5        30.29R

$$
WYZ021-027>030-104>119-250900-
SOUTHERN WYOMING

CITY           SKY/WX    TMP DP  RH WIND       PRES   REMARKS
EVANSTON       FAIR      47  16  29 E6        30.29R
FORT BRIDGER   FAIR      45  16  30 W9        30.32R
ROCK SPRINGS   NOT AVBL
DIXON          FAIR      48  32  52 CALM      30.24R
RAWLINS        MOCLDY    51  38  60 NE10      30.28S
SARATOGA       FAIR      45  43  93 W9        30.26S
LARAMIE        FAIR      45  41  86 S9        30.27R
CHEYENNE       FAIR      47  44  90 W3        30.26S
TORRINGTON     MOCLDY    52  48  86 NW3       30.22S
PINE BLUFFS    FAIR      41  37  87 CALM      30.25S

$$



USA.gov is the U.S. government's official web portal to all federal, state and local government web resources and services.